FW7275 Weather Reports


time (UTC)temp
C
wind
direction
speed
KPH
gust
KPH
rain 1hr
cm
rain 24hr
cm
rain mn
cm
humidity
%
barometer
mb
20200924084017 17 135 1.6 4.8 0.00 0.00 7.77 87
20200924083018 17 225 1.6 6.4 0.00 0.00 7.77 88
20200924082018 16 225 1.6 6.4 0.00 0.00 7.77 88
20200924081017 16 135 1.6 9.7 0.00 0.00 7.77 89
20200924080022 16 135 1.6 6.4 0.00 0.00 7.77 89
20200924075018 15 113 0.0 4.8 0.00 0.00 7.77 91
20200924074015 15 135 0.0 1.6 0.00 0.00 7.77 91
20200924072017 15 180 1.6 6.4 0.00 0.00 7.77 91
20200924071017 15 248 0.0 4.8 0.00 0.00 7.77 91
20200924070029 15 248 1.6 4.8 0.00 0.00 7.77 91
20200924062015 13 113 1.6 4.8 0.00 0.00 7.77 96
20200924061017 12 293 0.0 3.2 0.00 0.00 7.77 95
20200924060032 12 135 0.0 3.2 0.00 0.00 7.77 95
20200924055016 11 248 0.0 3.2 0.00 0.00 7.77 97
20200924053021 10 270 0.0 3.2 0.00 0.00 7.77 97
20200924050033 10 90 0.0 3.2 0.00 0.00 7.77 97
20200924044014 10 90 0.0 1.6 0.00 0.00 7.77 97
20200924035016 10 90 0.0 1.6 0.00 0.00 7.77 97
20200924034014 10 90 0.0 3.2 0.00 0.00 7.77 97
20200924033019 10 113 0.0 4.8 0.00 0.00 7.77 96
20200924032016 10 113 0.0 3.2 0.00 0.00 7.77 96
20200923223023 12 135 0.0 3.2 0.00 0.00 7.77 95
20200923214019 12 135 0.0 3.2 0.00 0.00 7.77 94
20200923201015 14 225 0.0 3.2 0.00 0.00 7.77 91
20200923192020 15 225 0.0 3.2 0.00 0.00 7.77 91
20200923191015 15 225 0.0 1.6 0.00 0.00 7.77 91
20200923182015 16 225 0.0 3.2 0.00 0.00 7.77 90
20200923181019 16 248 0.0 1.6 0.00 0.00 7.77 90
20200923180034 16 248 1.6 6.4 0.00 0.00 7.77 91
20200923175014 16 248 1.6 6.4 0.00 0.00 7.77 91
20200923174019 16 225 3.2 11.3 0.00 0.00 7.77 91
20200923173029 16 225 1.6 11.3 0.00 0.00 7.77 91
20200923172015 16 248 0.0 3.2 0.00 0.00 7.77 92
20200923155021 19 315 0.0 1.6 0.00 0.00 7.77 82
20200923154020 19 315 1.6 4.8 0.00 0.00 7.77 81
20200923153023 19 315 1.6 4.8 0.00 0.00 7.77 82
20200923152016 19 135 1.6 4.8 0.00 0.00 7.77 83
20200923151018 19 135 0.0 4.8 0.00 0.00 7.77 83
20200923150030 19 248 1.6 6.4 0.00 0.00 7.77 84
20200923145016 18 338 1.6 4.8 0.00 0.00 7.77 84
20200923144021 19 315 1.6 6.4 0.00 0.00 7.77 83
20200923143033 19 248 1.6 8.0 0.00 0.00 7.77 84
20200923142021 18 248 1.6 6.4 0.00 0.00 7.77 85
20200923141014 19 248 1.6 4.8 0.00 0.00 7.77 87
20200923135018 19 225 0.0 3.2 0.00 0.00 7.77 86
20200923134017 18 248 0.0 4.8 0.00 0.00 7.77 87
20200923133030 18 248 1.6 3.2 0.00 0.00 7.77 87
20200923132014 18 248 1.6 6.4 0.00 0.00 7.77 87
20200923131014 18 225 1.6 6.4 0.00 0.00 7.77 88
20200923130037 18 248 1.6 4.8 0.00 0.00 7.77 89
20200923125015 18 248 1.6 4.8 0.00 0.00 7.77 89
20200923124015 17 315 1.6 4.8 0.00 0.00 7.77 91
20200923123019 17 315 1.6 6.4 0.00 0.00 7.77 92
20200923122016 17 315 1.6 4.8 0.00 0.00 7.77 92
20200923121020 17 315 1.6 6.4 0.00 0.00 7.77 91
20200923120032 17 225 1.6 3.2 0.00 0.00 7.77 91
20200923115018 17 248 3.2 9.7 0.00 0.00 7.77 91
20200923114025 17 248 1.6 4.8 0.00 0.00 7.77 93
20200923113025 17 225 3.2 11.3 0.00 0.00 7.77 94
20200923112025 17 315 1.6 9.7 0.00 0.00 7.77 94
20200923111017 17 293 3.2 8.0 0.00 0.00 7.77 95
20200923110023 16 315 1.6 8.0 0.00 0.00 7.77 96
20200923105017 16 315 1.6 4.8 0.00 0.00 7.77 96
20200923104014 16 293 1.6 4.8 0.00 0.00 7.77 96
20200923103020 16 293 1.6 6.4 0.00 0.00 7.77 97
20200923102019 16 315 1.6 8.0 0.00 0.00 7.77 97
20200923101019 16 225 1.6 9.7 0.00 0.00 7.77 98
20200923100036 16 248 1.6 4.8 0.00 0.00 7.77 98
20200923095014 16 225 0.0 3.2 0.00 0.00 7.77 98
20200923094019 15 225 0.0 4.8 0.00 0.00 7.77 98
20200923093026 15 248 0.0 3.2 0.00 0.00 7.77 98
20200923092014 15 270 1.6 4.8 0.00 0.00 7.77 98
20200923091021 15 270 1.6 4.8 0.00 0.00 7.77 98
20200923090027 15 270 1.6 4.8 0.00 0.00 7.77 98
20200923085017 15 270 1.6 4.8 0.00 0.00 7.77 98